Date_and_time,latitude,longitude,wind_speed,RelWindDirFrom,WindDirFrom,air_pressure,air_temperature,relative_humidity,Temp,platform_speed_wrt_ground,air_pressure_at_mean_sea_level,platform_orientation
2018-06-13 00:00,50.9117283333333,-96.9825316666667,10.0,12.8,138,981.10,16.9,79,16.70,0.0,1007.18,90.0
2018-06-13 00:10,50.91173,-96.9825233333333,9.6,12.5,140,981.03,16.8,82,16.69,0.0,1007.10,90.0
2018-06-13 00:20,50.911725,-96.9825233333333,11.3,13.1,140,980.96,16.9,80,16.71,0.0,1007.02,90.0
2018-06-13 00:30,50.9117266666667,-96.9825233333333,11.5,13.1,138,980.92,16.8,82,16.72,0.0,1006.98,90.0
2018-06-13 00:40,50.9117283333333,-96.982525,12.9,15.8,147,980.88,17.3,74,16.74,0.0,1006.90,90.0
2018-06-13 00:50,50.9117433333333,-96.982505,13.3,15.0,146,980.70,17.3,75,16.87,0.0,1006.69,90.0
2018-06-13 01:00,50.91174,-96.9825116666667,12.3,14.9,147,980.69,17.2,78,16.88,0.0,1006.70,314.7
2018-06-13 01:10,50.911725,-96.9825433333333,12.8,15.2,167,980.71,18.0,65,16.96,0.0,1006.63,314.7
2018-06-13 01:20,50.9117516666667,-96.9824933333333,13.5,15.4,171,980.71,18.5,62,17.17,0.0,1006.60,314.7
2018-06-13 01:30,50.9117383333333,-96.982505,12.6,14.7,170,980.74,18.4,64,17.36,0.0,1006.64,314.7
2018-06-13 01:40,50.911735,-96.982515,12.6,15.5,174,980.75,18.3,66,17.46,0.0,1006.66,314.7
2018-06-13 01:50,50.9117333333333,-96.98252,12.3,15.7,173,980.77,18.2,67,17.50,0.0,1006.68,314.7
2018-06-13 02:00,50.9117316666667,-96.98252,12.0,14.1,174,980.75,18.2,68,17.53,0.0,1006.66,314.7
2018-06-13 02:10,50.9117316666667,-96.9825216666667,11.0,13.9,174,980.82,18.0,70,17.53,0.0,1006.75,314.7
2018-06-13 02:20,50.91174,-96.98253,8.0,9.6,177,980.86,17.8,72,17.50,0.0,1006.81,314.7
2018-06-13 02:30,50.911735,-96.982525,7.1,10.0,183,980.88,17.7,73,17.44,0.0,1006.84,314.7
2018-06-13 02:40,50.91176,-96.98252,5.4,7.6,194,980.93,17.4,79,17.42,0.0,1006.93,314.7
2018-06-13 02:50,50.911745,-96.9825283333333,4.8,7.2,188,981.00,17.1,84,17.30,0.0,1007.01,314.7
2018-06-13 03:00,50.9117333333333,-96.9825283333333,3.3,4.7,197,981.10,17.0,79,17.22,0.0,1007.09,322.6
2018-06-13 03:10,50.9117066666667,-96.982545,3.4,5.2,204,981.25,17.1,68,17.14,0.0,1007.22,322.6
2018-06-13 03:20,50.91172,-96.9825366666667,3.8,5.7,210,981.33,17.2,63,17.07,0.0,1007.30,322.6
2018-06-13 03:30,50.9117166666667,-96.9825183333333,2.6,5.4,239,981.42,17.2,63,17.02,0.0,1007.39,322.6
2018-06-13 03:40,50.9117233333333,-96.9825266666667,3.2,5.3,250,981.47,16.9,62,16.93,0.0,1007.46,322.6
2018-06-13 03:50,50.911725,-96.9825333333333,4.8,5.9,238,981.48,17.0,60,16.83,0.0,1007.47,322.6
2018-06-13 04:00,50.9117283333333,-96.9825333333333,5.2,6.9,241,981.54,17.0,58,16.79,0.0,1007.54,228.9
2018-06-13 04:10,50.9117266666667,-96.98253,5.6,7.3,242,981.55,17.1,57,16.77,0.0,1007.55,228.9
2018-06-13 04:20,50.9117416666667,-96.98254,5.0,7.2,237,981.56,17.0,56,16.75,0.0,1007.57,228.9
2018-06-13 04:30,50.911725,-96.982525,5.2,7.3,236,981.55,16.5,59,16.71,0.0,1007.60,228.9
2018-06-13 04:40,50.911725,-96.982525,5.8,7.1,241,981.61,16.3,58,16.65,0.0,1007.68,228.9
2018-06-13 04:50,50.91173,-96.982525,5.5,7.6,239,981.64,16.3,57,16.59,0.0,1007.72,228.9
2018-06-13 05:00,50.9117316666667,-96.9825266666667,5.5,7.7,242,981.67,16.0,57,16.53,0.0,1007.76,270.0
2018-06-13 05:10,50.9117366666667,-96.9825066666667,6.1,8.2,242,981.68,15.8,56,16.45,0.0,1007.78,270.0
2018-06-13 05:20,50.9117266666667,-96.9825366666667,6.2,8.6,244,981.76,15.7,55,16.37,0.0,1007.86,270.0
2018-06-13 05:30,50.9117433333333,-96.9825266666667,6.2,8.8,244,981.81,15.6,55,16.30,0.0,1007.93,270.0
2018-06-13 05:40,50.9117383333333,-96.9825383333333,6.4,8.7,245,981.84,15.5,54,16.23,0.0,1007.96,270.0
2018-06-13 05:50,50.9117383333333,-96.982535,6.3,9.0,245,981.87,15.4,54,16.16,0.0,1007.99,270.0
2018-06-13 06:00,50.911735,-96.982535,6.4,8.3,245,981.90,15.3,54,16.10,0.0,1008.02,350.2
2018-06-13 06:10,50.9117333333333,-96.982535,6.3,8.1,243,981.89,15.2,54,16.03,0.0,1008.03,350.2
2018-06-13 06:20,50.9117316666667,-96.982535,6.0,8.3,248,981.94,15.0,54,15.97,0.0,1008.11,350.2
2018-06-13 06:30,50.9117316666667,-96.982535,5.6,8.4,248,982.07,14.9,54,15.90,0.0,1008.26,350.2
2018-06-13 06:40,50.9117483333333,-96.9825166666667,6.2,8.6,245,982.12,14.8,55,15.84,0.0,1008.31,350.2
2018-06-13 06:50,50.9117366666667,-96.9825316666667,6.4,9.4,250,982.20,14.6,56,15.78,0.0,1008.42,350.2
2018-06-13 07:00,50.9117316666667,-96.9825266666667,6.7,9.9,254,982.23,14.4,56,15.71,0.0,1008.47,90.0
2018-06-13 07:10,50.9117333333333,-96.98253,6.7,9.6,254,982.27,14.1,57,15.63,0.0,1008.53,90.0
2018-06-13 07:20,50.9117266666667,-96.9825266666667,6.7,9.8,253,982.32,13.8,58,15.54,0.0,1008.60,90.0
2018-06-13 07:30,50.9117233333333,-96.9825266666667,7.6,10.3,255,982.33,13.8,57,15.44,0.0,1008.61,90.0
2018-06-13 07:40,50.9117416666667,-96.9825183333333,7.9,10.5,257,982.40,14.0,57,15.36,0.0,1008.68,90.0
2018-06-13 07:50,50.9117083333333,-96.9825516666667,7.7,11.2,256,982.47,14.0,57,15.29,0.0,1008.75,90.0
2018-06-13 08:00,50.9117333333333,-96.9825183333333,6.8,9.6,254,982.50,14.0,57,15.24,0.0,1008.79,90.0
2018-06-13 08:10,50.911745,-96.98252,6.4,8.5,254,982.48,13.9,57,15.20,0.0,1008.78,90.0
2018-06-13 08:20,50.91172,-96.9825266666667,6.4,10.1,254,982.44,13.7,58,15.16,0.0,1008.76,90.0
2018-06-13 08:30,50.9117283333333,-96.982525,7.3,10.9,254,982.43,13.6,60,15.11,0.0,1008.76,90.0
2018-06-13 08:40,50.9117316666667,-96.98253,7.5,10.7,255,982.43,13.6,60,15.06,0.0,1008.77,90.0
2018-06-13 08:50,50.9117333333333,-96.9825316666667,7.5,11.7,256,982.44,13.6,62,15.01,0.0,1008.78,90.0
2018-06-13 09:00,50.911735,-96.98253,7.6,10.7,254,982.41,13.6,62,14.96,0.0,1008.77,90.0
2018-06-13 09:10,50.9117366666667,-96.9825316666667,8.2,11.3,254,982.39,13.6,62,14.92,0.0,1008.76,90.0
2018-06-13 09:20,50.911735,-96.98253,6.6,9.1,251,982.36,13.4,63,14.88,0.0,1008.74,90.0
2018-06-13 09:30,50.911725,-96.9825366666667,7.3,11.1,252,982.38,13.3,63,14.84,0.0,1008.76,90.0
2018-06-13 09:40,50.9117333333333,-96.9825316666667,7.0,10.1,252,982.38,13.3,63,14.80,0.0,1008.75,90.0
2018-06-13 09:50,50.9117316666667,-96.9825283333333,6.8,10.4,249,982.33,13.4,63,14.76,0.0,1008.70,90.0
2018-06-13 10:00,50.9117316666667,-96.9825266666667,7.7,10.7,254,982.34,13.4,63,14.73,0.0,1008.71,0.0
2018-06-13 10:10,50.9117333333333,-96.9825283333333,7.8,10.5,255,982.39,13.4,63,14.69,0.0,1008.77,0.0
2018-06-13 10:20,50.9117333333333,-96.98253,7.5,10.0,256,982.56,13.4,63,14.66,0.0,1008.96,0.0
2018-06-13 10:30,50.9117133333333,-96.9825283333333,7.4,10.7,252,982.57,13.4,63,14.63,0.0,1008.97,0.0
2018-06-13 10:40,50.9117183333333,-96.9825316666667,7.3,11.6,251,982.51,13.4,63,14.61,0.0,1008.90,0.0
2018-06-13 10:50,50.9117183333333,-96.9825333333333,7.7,10.8,255,982.47,13.4,65,14.59,0.0,1008.87,0.0
2018-06-13 11:00,50.9117316666667,-96.9825333333333,7.7,10.5,254,982.50,13.3,66,14.57,0.0,1008.89,270.0
2018-06-13 11:10,50.9117183333333,-96.9825166666667,7.0,10.9,250,982.53,13.3,67,14.54,0.0,1008.93,270.0
2018-06-13 11:20,50.9117416666667,-96.9825316666667,7.1,10.7,237,982.38,13.4,67,14.53,0.0,1008.78,270.0
2018-06-13 11:30,50.9117383333333,-96.982565,7.2,9.7,241,982.40,13.3,68,14.51,0.0,1008.81,270.0
2018-06-13 11:40,50.9117333333333,-96.98251,5.5,8.8,245,982.52,13.8,66,14.49,0.0,1008.91,270.0
2018-06-13 11:50,50.9117333333333,-96.9825166666667,5.0,8.1,261,982.66,14.2,65,14.55,0.0,1009.03,270.0
2018-06-13 12:00,50.9117333333333,-96.98251,5.6,8.1,264,982.67,14.5,64,14.63,0.0,1009.02,125.8
2018-06-13 12:10,50.911725,-96.9825166666667,6.1,9.9,251,982.64,14.9,62,14.72,0.0,1008.97,125.8
2018-06-13 12:20,50.911725,-96.982515,5.9,9.6,260,982.69,15.3,61,14.84,0.0,1009.00,125.8
2018-06-13 12:30,50.9117233333333,-96.9825133333333,5.8,9.2,249,982.75,15.4,62,14.98,0.0,1009.06,125.8
2018-06-13 12:40,50.9117216666667,-96.9825166666667,5.6,9.7,254,982.81,15.8,61,15.10,0.0,1009.11,125.8
2018-06-13 12:50,50.9117216666667,-96.98252,5.6,9.1,248,982.83,16.3,59,15.23,0.0,1009.11,125.8
2018-06-13 13:00,50.911735,-96.982535,5.7,8.9,253,982.93,16.7,58,15.36,0.0,1009.19,350.2
2018-06-13 13:10,50.9117633333333,-96.9825433333333,5.1,8.6,259,982.98,17.1,58,15.51,0.0,1009.22,350.2
2018-06-13 13:20,50.9117416666667,-96.9825266666667,3.9,7.2,258,983.06,17.7,58,15.66,0.0,1009.28,350.2
2018-06-13 13:30,50.9117366666667,-96.982525,5.1,8.1,260,983.09,18.1,56,15.82,0.0,1009.27,350.2
2018-06-13 13:40,50.9117283333333,-96.98252,4.7,8.6,250,983.06,18.6,54,16.00,0.0,1009.21,350.2
2018-06-13 13:50,50.9117316666667,-96.9825216666667,5.7,9.5,242,983.09,19.0,52,16.17,0.0,1009.20,350.2
2018-06-13 14:00,50.9117316666667,-96.9825216666667,6.9,10.4,247,983.09,19.0,51,16.37,0.0,1009.18,90.0
2018-06-13 14:10,50.9117316666667,-96.9825316666667,4.3,7.5,249,983.07,19.5,52,16.56,0.0,1009.12,90.0
2018-06-13 14:20,50.911735,-96.982525,5.0,8.9,245,983.09,20.2,48,16.70,0.0,1009.10,90.0
2018-06-13 14:30,50.91173,-96.9825316666667,5.3,8.4,240,983.12,20.6,45,16.90,0.0,1009.09,90.0
2018-06-13 14:40,50.9117283333333,-96.9825283333333,4.6,8.7,233,983.12,21.2,44,17.11,0.0,1009.05,90.0
2018-06-13 14:50,50.9117283333333,-96.982525,4.4,9.2,232,983.14,21.6,43,17.29,0.0,1009.03,90.0
2018-06-13 15:00,50.911735,-96.9825233333333,6.3,11.3,247,983.17,22.2,38,17.50,0.0,1009.02,350.2
2018-06-13 15:10,50.9117183333333,-96.98251,4.0,7.8,240,983.18,22.6,35,17.74,0.0,1008.99,350.2
2018-06-13 15:20,50.91173,-96.9825233333333,4.6,9.0,237,983.16,23.3,32,17.91,0.0,1008.91,350.2
2018-06-13 15:30,50.9117316666667,-96.9825233333333,5.6,11.5,239,983.18,23.6,29,18.13,0.0,1008.90,350.2
2018-06-13 15:40,50.9117333333333,-96.9825266666667,5.9,11.2,243,983.15,23.6,28,18.35,0.0,1008.85,350.2
2018-06-13 15:50,50.9117316666667,-96.9825233333333,5.1,10.8,216,983.21,23.7,28,18.52,0.0,1008.91,350.2
2018-06-13 16:00,50.9117516666667,-96.982505,2.1,7.6,243,983.28,23.6,33,18.61,0.0,1008.97,47.9
2018-06-13 16:10,50.9117416666667,-96.982505,2.4,9.7,238,983.30,23.5,33,18.49,0.0,1008.95,47.9
2018-06-13 16:20,50.9117416666667,-96.9825133333333,5.0,11.0,213,983.36,23.2,34,18.51,0.0,1009.01,47.9
2018-06-13 16:30,50.9117383333333,-96.982515,4.1,8.3,151,983.38,19.9,64,18.50,0.0,1009.15,47.9
2018-06-13 16:40,50.911725,-96.9825233333333,3.3,8.4,179,983.23,20.4,47,18.26,0.0,1008.96,47.9
2018-06-13 16:50,50.9117266666667,-96.9825233333333,6.6,13.6,239,983.17,23.7,27,18.32,0.0,1008.73,47.9
2018-06-13 17:00,50.911725,-96.9825233333333,7.0,13.5,246,983.10,24.4,25,18.75,0.0,1008.61,142.5
2018-06-13 17:10,50.911745,-96.9824966666667,6.8,14.2,229,983.06,24.7,24,19.12,0.0,1008.53,142.5
2018-06-13 17:20,50.91174,-96.9825233333333,6.9,13.5,238,983.00,24.6,24,19.45,0.0,1008.45,142.5
2018-06-13 17:30,50.9117316666667,-96.9825283333333,8.3,15.1,237,983.02,24.5,22,19.77,0.0,1008.48,142.5
2018-06-13 17:40,50.9117316666667,-96.9825266666667,8.1,13.2,252,982.94,24.5,22,19.87,0.0,1008.39,142.5
2018-06-13 17:50,50.91173,-96.9825283333333,5.9,10.9,244,982.91,24.8,23,19.91,0.0,1008.35,142.5
2018-06-13 18:00,50.91173,-96.9825283333333,7.1,13.1,240,982.85,24.6,21,19.95,0.0,1008.30,189.8
2018-06-13 18:10,50.9117283333333,-96.9825283333333,6.0,12.1,222,982.80,24.8,20,19.97,0.0,1008.25,189.8
2018-06-13 18:20,50.9117283333333,-96.98253,6.6,15.5,219,982.71,25.2,20,19.98,0.0,1008.29,189.8
2018-06-13 18:30,50.9117283333333,-96.98253,7.2,14.4,211,982.68,25.2,20,20.06,0.0,1008.24,189.8
2018-06-13 18:40,50.9117283333333,-96.98253,7.0,16.1,211,982.64,25.3,19,20.10,0.0,1008.05,189.8
2018-06-13 18:50,50.9117283333333,-96.98253,8.1,14.4,205,982.61,25.4,19,20.16,0.0,1007.98,189.8
2018-06-13 19:00,50.91174,-96.98255,8.3,15.3,209,982.60,25.1,19,20.20,0.0,1007.98,250.9
2018-06-13 19:10,50.911735,-96.9825433333333,8.4,13.7,198,982.52,24.6,22,20.17,0.0,1007.92,250.9
2018-06-13 19:20,50.9117316666667,-96.982535,10.5,19.1,198,982.44,24.7,22,20.16,0.0,1007.84,250.9
2018-06-13 19:30,50.9117483333333,-96.9825016666667,8.7,14.9,199,982.39,25.0,21,20.24,0.0,1007.77,250.9
2018-06-13 19:40,50.9117083333333,-96.9825233333333,11.5,18.0,194,982.33,24.5,24,20.25,0.0,1007.72,250.9
2018-06-13 19:50,50.91172,-96.982525,12.2,17.2,196,982.32,24.5,24,20.33,0.0,1007.72,250.9
2018-06-13 20:00,50.9117333333333,-96.9825733333333,11.8,15.7,166,982.33,23.0,41,20.38,0.0,1007.78,278.9
2018-06-13 20:10,50.9117283333333,-96.9825133333333,14.5,17.2,153,982.28,20.0,54,20.08,0.0,1007.84,278.9
2018-06-13 20:20,50.9117333333333,-96.982525,14.9,17.7,149,982.21,19.4,57,19.72,0.0,1007.80,278.9
2018-06-13 20:30,50.911735,-96.9825283333333,15.3,20.1,147,982.14,19.6,56,19.43,0.0,1007.71,278.9
2018-06-13 20:40,50.9117366666667,-96.98253,15.4,18.5,146,982.09,19.5,57,19.21,0.0,1007.67,278.9
2018-06-13 20:50,50.9117366666667,-96.9825283333333,14.4,17.5,145,982.19,19.8,56,19.06,0.0,1007.77,278.9
2018-06-13 21:00,50.9117366666667,-96.9825283333333,12.9,17.4,149,982.17,20.0,53,18.95,0.0,1007.76,360.0
2018-06-13 21:10,50.9117383333333,-96.982515,7.8,18.3,155,982.19,20.5,51,18.90,0.0,1007.76,360.0
2018-06-13 21:20,50.911735,-96.98253,3.9,11.3,196,982.23,21.0,44,18.85,0.0,1007.76,360.0
2018-06-13 21:30,50.9117483333333,-96.98253,7.4,15.0,214,982.16,24.2,22,18.86,0.0,1007.57,360.0
2018-06-13 21:40,50.91174,-96.9825233333333,7.7,17.4,206,982.12,25.2,20,18.97,0.0,1007.49,360.0
2018-06-13 21:50,50.9117383333333,-96.9825216666667,7.2,14.1,201,982.02,25.4,21,19.07,0.0,1007.44,360.0
2018-06-13 22:00,50.9117383333333,-96.982525,9.9,17.0,189,981.91,25.5,22,19.16,0.0,1007.45,90.0
2018-06-13 22:10,50.911725,-96.9824666666667,9.4,15.5,194,981.86,24.9,20,19.26,0.0,1007.46,90.0
2018-06-13 22:20,50.9117283333333,-96.982505,6.1,12.4,202,982.01,24.9,22,19.30,0.0,1007.60,90.0
2018-06-13 22:30,50.911725,-96.9825133333333,6.5,12.2,236,982.03,24.9,18,19.29,0.0,1007.62,90.0
2018-06-13 22:40,50.911725,-96.9825166666667,6.9,14.9,252,981.93,25.1,18,19.28,0.0,1007.50,90.0
2018-06-13 22:50,50.911725,-96.9825316666667,4.8,9.7,217,981.92,25.1,18,19.27,0.0,1007.48,90.0
2018-06-13 23:00,50.9117283333333,-96.9825283333333,3.5,6.2,217,981.84,25.1,17,19.24,0.0,1007.38,90.0
2018-06-13 23:10,50.9117316666667,-96.9825266666667,3.4,6.0,208,981.81,24.9,18,19.21,0.0,1007.33,90.0
2018-06-13 23:20,50.91173,-96.9825283333333,3.8,7.2,198,981.75,24.9,20,19.16,0.0,1007.14,90.0
2018-06-13 23:30,50.9117316666667,-96.9825316666667,3.1,5.2,187,981.71,24.5,24,19.11,0.0,1007.07,90.0
